EW1474 Weather Reports


Display with metric or nautical units.
time (UTC)temp
F
wind
direction
speed
MPH
gust
MPH
rain 1hr
in
rain 24hr
in
rain mn
in
humidity
%
barometer
mb
20260505123954 60 165 0.0 2.0 0.00 0.00 0.00 65 1009.3
20260505123450 59 156 1.0 2.0 0.00 0.00 0.00 66 1009.4
20260505122946 59 130 1.0 3.0 0.00 0.00 0.00 69 1009.5
20260505122444 58 136 1.0 2.0 0.00 0.00 0.00 70 1009.4
20260505121940 58 172 1.0 2.0 0.00 0.00 0.00 71 1009.5
20260505121438 57 124 1.0 2.0 0.00 0.00 0.00 73 1009.4
20260505120933 57 107 1.0 2.0 0.00 0.00 0.00 73 1009.5
20260505120430 56 154 1.0 2.0 0.00 0.00 0.00 74 1009.5
20260505115929 55 135 1.0 2.0 0.00 0.00 0.00 76 1009.7
20260505115426 53 103 0.0 1.0 0.00 0.00 0.00 79 1009.5
20260505114924 53 102 0.0 1.0 0.00 0.00 0.00 82 1009.6
20260505114420 52 102 1.0 1.0 0.00 0.00 0.00 81 1009.6
20260505113916 51 100 1.0 1.0 0.00 0.00 0.00 83 1009.5
20260505113413 51 116 1.0 2.0 0.00 0.00 0.00 84 1009.7
20260505112909 51 120 1.0 2.0 0.00 0.00 0.00 85 1009.8
20260505112407 50 107 0.0 1.0 0.00 0.00 0.00 85 1009.7
20260505111902 50 117 0.0 2.0 0.00 0.00 0.00 86 1009.4
20260505111357 49 192 1.0 1.0 0.00 0.00 0.00 88 1009.5
20260505110853 48 218 1.0 1.0 0.00 0.00 0.00 89 1009.7
20260505110351 47 218 0.0 1.0 0.00 0.00 0.00 90 1009.6
20260505101821 44 219 1.0 2.0 0.00 0.00 0.00 94 1009.6
20260505101316 44 219 1.0 2.0 0.00 0.00 0.00 95 1009.8
20260505100813 44 219 0.0 2.0 0.00 0.00 0.00 94 1009.6
20260505100309 44 219 1.0 2.0 0.00 0.00 0.00 94 1009.6
20260505095805 44 219 1.0 2.0 0.00 0.00 0.00 94 1009.6
20260505095304 44 220 1.0 2.0 0.00 0.00 0.00 94 1009.7
20260505094758 44 220 1.0 1.0 0.00 0.00 0.00 94 1009.6
20260505094255 44 220 1.0 1.0 0.00 0.00 0.00 94 1009.2
20260505093751 44 220 1.0 2.0 0.00 0.00 0.00 95 1009.4
20260505093249 43 220 1.0 2.0 0.00 0.00 0.00 96 1009.4
20260505092745 43 220 1.0 2.0 0.00 0.00 0.00 96 1009.2
20260505092244 43 220 1.0 1.0 0.00 0.00 0.00 96 1009.2
20260505091741 43 220 1.0 2.0 0.00 0.00 0.00 95 1009.3
20260505091239 43 220 0.0 2.0 0.00 0.00 0.00 96 1009.3
20260505090736 43 220 1.0 2.0 0.00 0.00 0.00 96 1009.3
20260505090235 43 219 2.0 2.0 0.00 0.00 0.00 97 1009.4
20260505085732 43 218 2.0 2.0 0.00 0.00 0.00 97 1009.2
20260505085230 43 217 2.0 2.0 0.00 0.00 0.00 97 1009.2
20260505084727 43 217 1.0 2.0 0.00 0.00 0.00 97 1009.4
20260505084226 43 217 1.0 2.0 0.00 0.00 0.00 97 1009.3
20260505083722 43 217 1.0 2.0 0.00 0.00 0.00 96 1009.3
20260505083219 43 217 1.0 2.0 0.00 0.00 0.00 97 1009.3
20260505082715 43 217 1.0 1.0 0.00 0.00 0.00 96 1009.3
20260505082213 43 217 1.0 2.0 0.00 0.00 0.00 96 1009.3
20260505081708 43 217 1.0 2.0 0.00 0.00 0.00 96 1009.3
20260505081206 43 213 1.0 1.0 0.00 0.00 0.00 95 1009.3
20260505080703 43 217 2.0 2.0 0.00 0.00 0.00 96 1009.2
20260505080158 43 213 2.0 2.0 0.00 0.00 0.00 95 1009.4
20260505075654 43 211 0.0 2.0 0.00 0.00 0.00 96 1009.4
20260505075151 43 212 2.0 2.0 0.00 0.00 0.00 95 1009.4
20260505074648 43 209 1.0 2.0 0.00 0.00 0.00 95 1009.6
20260505074145 43 209 1.0 2.0 0.00 0.00 0.00 95 1009.5
20260505073643 44 210 1.0 2.0 0.00 0.00 0.00 95 1009.3
20260505073141 43 202 1.0 2.0 0.00 0.00 0.00 95 1009.5
20260505072636 43 198 1.0 2.0 0.00 0.00 0.00 95 1009.4
20260505072133 43 200 1.0 2.0 0.00 0.00 0.00 95 1009.3
20260505071629 43 211 2.0 2.0 0.00 0.00 0.00 95 1009.3
20260505071127 43 203 1.0 2.0 0.00 0.00 0.00 95 1009.3
20260505070624 43 194 1.0 2.0 0.00 0.00 0.00 95 1009.3
20260505070120 44 211 1.0 1.0 0.00 0.00 0.00 94 1009.2
20260505065616 44 212 2.0 2.0 0.00 0.00 0.00 94 1009.2
20260505065113 44 216 1.0 2.0 0.00 0.00 0.00 95 1009.3
20260505064610 44 217 2.0 2.0 0.00 0.00 0.00 94 1009.1
20260505064108 44 216 3.0 3.0 0.00 0.00 0.00 95 1009.1
20260505063605 44 216 2.0 2.0 0.00 0.00 0.00 95 1009.1
20260505063101 44 203 1.0 2.0 0.00 0.00 0.00 95 1009.1
20260505062557 44 208 1.0 2.0 0.00 0.00 0.00 95 1009.1
20260505062055 44 200 1.0 2.0 0.00 0.00 0.00 95 1009.1
20260505061552 43 197 1.0 2.0 0.00 0.00 0.00 96 1009.1
20260505061050 43 196 1.0 2.0 0.00 0.00 0.00 97 1009.1
20260505060547 43 197 0.0 2.0 0.00 0.00 0.00 97 1009.1
20260505060044 42 198 1.0 2.0 0.00 0.00 0.00 97 1009.1
20260505055539 42 197 1.0 2.0 0.00 0.00 0.00 97 1009.1
20260505055036 43 197 1.0 1.0 0.00 0.00 0.00 97 1009.1
20260505054533 43 198 1.0 1.0 0.00 0.00 0.00 97 1009.3
20260505054032 43 198 1.0 1.0 0.00 0.00 0.00 97 1009.1
20260505053528 43 198 0.0 1.0 0.00 0.00 0.00 96 1008.9
20260505053025 43 198 0.0 2.0 0.00 0.00 0.00 96 1009.2
20260505052522 43 197 1.0 1.0 0.00 0.00 0.00 96 1008.9
20260505052020 43 200 1.0 1.0 0.00 0.00 0.00 96 1009.2
20260505051516 43 201 1.0 1.0 0.00 0.00 0.00 96 1008.8
20260505051014 44 202 2.0 2.0 0.00 0.00 0.00 96 1008.8
20260505050512 44 203 1.0 1.0 0.00 0.00 0.00 96 1008.9
20260505041440 44 235 0.0 1.0 0.00 0.00 0.00 97 1008.8
20260505040937 43 235 1.0 1.0 0.00 0.00 0.00 97 1009.0
20260505040434 43 236 1.0 1.0 0.00 0.00 0.00 97 1008.9
20260505035931 43 236 1.0 1.0 0.00 0.00 0.00 97 1009.1
20260505035427 43 251 0.0 1.0 0.00 0.00 0.00 96 1008.8
20260505034925 44 251 1.0 1.0 0.00 0.00 0.00 96 1009.0
20260505034421 44 252 0.0 0.0 0.00 0.00 0.00 95 1009.1
20260505033918 45 252 0.0 0.0 0.00 0.00 0.00 94 1009.0
20260505033414 45 252 1.0 1.0 0.00 0.00 0.00 94 1008.8
20260505032913 45 251 1.0 1.0 0.00 0.00 0.00 94 1008.9
20260505032409 45 253 1.0 2.0 0.00 0.00 0.00 94 1008.9
20260505031906 46 264 1.0 1.0 0.00 0.00 0.00 93 1008.8
20260505031403 46 269 1.0 2.0 0.00 0.00 0.00 93 1008.9
20260505030900 46 283 1.0 1.0 0.00 0.00 0.00 93 1009.1
20260505030356 47 283 1.0 1.0 0.00 0.00 0.00 92 1008.8
20260505025851 47 289 1.0 1.0 0.00 0.00 0.00 91 1008.9
20260505025349 47 294 1.0 1.0 0.00 0.00 0.00 91 1009.1
20260505024848 47 306 1.0 1.0 0.00 0.00 0.00 91 1009.0
20260505024345 48 308 1.0 1.0 0.00 0.00 0.00 91 1008.9
20260505023842 48 308 0.0 1.0 0.00 0.00 0.00 90 1009.1
20260505023339 48 308 0.0 1.0 0.00 0.00 0.00 90 1009.2
20260505022836 48 309 1.0 1.0 0.00 0.00 0.00 90 1009.4
20260505022333 48 311 0.0 1.0 0.00 0.00 0.00 91 1009.2
20260505021831 46 325 1.0 1.0 0.00 0.00 0.00 94 1008.9
20260505021327 46 339 0.0 0.0 0.00 0.00 0.00 94 1009.2
20260505020823 46 339 0.0 0.0 0.00 0.00 0.00 94 1008.9
20260505020318 46 339 0.0 1.0 0.00 0.00 0.00 94 1009.0
20260505015815 46 338 0.0 1.0 0.00 0.00 0.00 93 1009.1
20260505015313 47 339 0.0 0.0 0.00 0.00 0.00 93 1008.9
20260505014810 47 339 0.0 0.0 0.00 0.00 0.00 92 1008.9
20260505014307 47 332 0.0 0.0 0.00 0.00 0.00 92 1009.0
20260505013803 47 332 0.0 0.0 0.00 0.00 0.00 92 1008.8
20260505013301 48 337 0.0 0.0 0.00 0.00 0.00 91 1008.9
20260505012759 48 337 0.0 0.0 0.00 0.00 0.00 91 1009.0
20260505012256 48 339 0.0 0.0 0.00 0.00 0.00 90 1008.8
20260505011752 48 322 0.0 0.0 0.00 0.00 0.00 89 1008.8
20260505011249 48 309 1.0 1.0 0.00 0.00 0.00 90 1008.6
20260505010744 48 309 1.0 1.0 0.00 0.00 0.00 90 1008.9
20260505010241 48 309 0.0 1.0 0.00 0.00 0.00 91 1008.7
20260505005737 48 309 0.0 0.0 0.00 0.00 0.00 90 1008.6
20260505005234 48 309 0.0 1.0 0.00 0.00 0.00 89 1008.6
20260505004731 49 310 1.0 1.0 0.00 0.00 0.00 88 1008.2
20260505004228 49 310 0.0 0.0 0.00 0.00 0.00 86 1008.1
20260505003725 49 310 0.0 0.0 0.00 0.00 0.00 86 1007.9
20260505003223 50 310 1.0 1.0 0.00 0.00 0.00 86 1007.9
20260505002719 50 310 0.0 0.0 0.00 0.00 0.00 84 1007.8
20260505002217 50 310 0.0 0.0 0.00 0.00 0.00 84 1007.6
20260505001714 50 310 0.0 1.0 0.00 0.00 0.00 83 1007.7
20260505001211 51 310 0.0 0.0 0.00 0.00 0.00 82 1007.6
20260505000708 51 310 0.0 0.0 0.00 0.00 0.00 81 1007.6
20260505000206 51 310 0.0 0.0 0.00 0.00 0.00 79 1007.6
20260504235702 52 310 0.0 0.0 0.00 0.00 0.00 78 1007.5
20260504235158 52 310 0.0 0.0 0.00 0.00 0.00 78 1007.4
20260504234655 53 310 0.0 1.0 0.00 0.00 0.00 76 1007.3
20260504234152 53 310 0.0 1.0 0.00 0.00 0.00 76 1007.1
20260504233649 54 310 0.0 1.0 0.00 0.00 0.00 74 1007.1
20260504233145 54 310 0.0 1.0 0.00 0.00 0.00 73 1007.1
20260504232643 55 310 1.0 1.0 0.00 0.00 0.00 73 1007.1
20260504232139 55 310 0.0 0.0 0.00 0.00 0.00 71 1007.2
20260504231636 56 310 0.0 1.0 0.00 0.00 0.00 68 1007.2
20260504231132 57 310 0.0 0.0 0.00 0.00 0.00 67 1007.1
20260504230629 57 311 0.0 0.0 0.00 0.00 0.00 67 1006.7
20260504230128 58 311 0.0 0.0 0.00 0.00 0.00 62 1007.0
20260504225626 58 311 0.0 1.0 0.00 0.00 0.00 61 1006.8
20260504225121 59 311 1.0 1.0 0.00 0.00 0.00 60 1006.7
20260504224618 59 346 2.0 3.0 0.00 0.00 0.00 59 1006.6
20260504224115 59 279 0.0 1.0 0.00 0.00 0.00 60 1006.5
20260504223612 59 272 0.0 1.0 0.00 0.00 0.00 59 1006.4
20260504223108 59 255 2.0 2.0 0.00 0.00 0.00 58 1006.7
20260504222605 59 288 1.0 2.0 0.00 0.00 0.00 59 1006.4
20260504222102 59 295 2.0 2.0 0.00 0.00 0.00 59 1006.1
20260504221559 59 235 4.0 5.0 0.00 0.00 0.00 59 1006.6
20260504221056 59 305 0.0 1.0 0.00 0.00 0.00 60 1006.6
20260504220552 59 227 2.0 2.0 0.00 0.00 0.00 60 1006.6
20260504220050 59 195 2.0 5.0 0.00 0.00 0.00 60 1006.6
20260504215546 60 279 1.0 2.0 0.00 0.00 0.00 59 1006.3
20260504215044 60 311 1.0 2.0 0.00 0.00 0.00 59 1006.4
20260504214539 59 201 1.0 2.0 0.00 0.00 0.00 60 1006.5
20260504214036 59 248 1.0 2.0 0.00 0.00 0.00 60 1006.4
20260504213532 59 101 0.0 2.0 0.00 0.00 0.00 60 1006.4
20260504213030 59 143 0.0 1.0 0.00 0.00 0.00 60 1006.2
20260504212526 60 344 0.0 2.0 0.00 0.00 0.00 59 1006.3
20260504212023 60 214 3.0 3.0 0.00 0.00 0.00 58 1006.1
20260504211520 60 274 1.0 3.0 0.00 0.00 0.00 57 1005.9
20260504211017 60 231 4.0 6.0 0.00 0.00 0.00 56 1006.0
20260504210514 60 278 3.0 7.0 0.00 0.00 0.00 57 1006.0
20260504210011 61 78 0.0 2.0 0.00 0.00 0.00 58 1006.0
20260504205509 61 298 2.0 5.0 0.00 0.00 0.00 56 1005.8
20260504205006 61 18 4.0 6.0 0.00 0.00 0.00 55 1006.1
20260504204504 61 284 4.0 8.0 0.00 0.00 0.00 56 1005.9
20260504204003 61 272 1.0 2.0 0.00 0.00 0.00 57 1005.8
20260504203500 60 277 3.0 7.0 0.00 0.00 0.00 58 1005.6
20260504202956 60 282 6.0 8.0 0.00 0.00 0.00 58 1005.9
20260504202453 60 230 2.0 5.0 0.00 0.00 0.00 60 1005.8
20260504201950 60 288 5.0 7.0 0.00 0.00 0.00 59 1005.8
20260504201447 60 215 2.0 5.0 0.00 0.00 0.00 61 1005.7
20260504200945 60 29 0.0 2.0 0.00 0.00 0.00 63 1005.6
20260504200441 59 61 1.0 2.0 0.00 0.00 0.00 65 1005.8
20260504195938 59 17 2.0 5.0 0.00 0.00 0.00 64 1005.6
20260504195434 59 285 1.0 1.0 0.00 0.00 0.00 65 1005.6
20260504194930 58 268 5.0 7.0 0.00 0.00 0.00 64 1005.7
20260504194426 59 313 4.0 5.0 0.00 0.00 0.00 65 1005.7
20260504193923 58 7 1.0 3.0 0.00 0.00 0.00 67 1006.0
20260504193420 58 180 1.0 2.0 0.00 0.00 0.00 66 1006.1
20260504192919 57 5 1.0 2.0 0.00 0.00 0.00 68 1005.9
20260504192415 57 260 3.0 3.0 0.00 0.00 0.00 68 1005.7
20260504191914 56 54 1.0 1.0 0.00 0.00 0.00 69 1006.1
20260504191412 56 71 0.0 1.0 0.00 0.00 0.00 71 1006.0
20260504190907 55 122 1.0 2.0 0.00 0.00 0.00 70 1006.1
20260504190403 55 60 1.0 2.0 0.00 0.00 0.00 72 1006.1
20260504185900 55 197 3.0 3.0 0.00 0.00 0.00 68 1006.4
20260504185357 56 157 3.0 6.0 0.00 0.00 0.00 66 1006.4
20260504184853 56 312 1.0 2.0 0.00 0.00 0.00 69 1006.2
20260504184349 56 279 2.0 3.0 0.00 0.00 0.00 67 1006.4
20260504183845 56 253 3.0 3.0 0.00 0.00 0.00 67 1006.2
20260504183343 56 206 1.0 5.0 0.00 0.00 0.00 67 1006.1
20260504182840 56 268 1.0 2.0 0.00 0.00 0.00 67 1006.4
20260504182337 55 250 2.0 2.0 0.00 0.00 0.00 68 1006.4
20260504181834 55 250 3.0 3.0 0.00 0.00 0.00 68 1006.5
20260504181331 55 293 0.0 2.0 0.00 0.00 0.00 68 1006.4
20260504180830 54 38 1.0 2.0 0.00 0.00 0.00 70 1006.6
20260504180328 54 34 0.0 3.0 0.00 0.00 0.00 69 1006.6
20260504175826 54 185 0.0 1.0 0.00 0.00 0.00 69 1006.6
20260504175322 54 244 2.0 3.0 0.00 0.00 0.00 65 1006.6
20260504174821 54 157 1.0 1.0 0.00 0.00 0.00 66 1006.5
20260504174318 54 213 1.0 1.0 0.00 0.00 0.00 64 1006.4
20260504173815 54 245 1.0 2.0 0.00 0.00 0.00 66 1006.7
20260504173311 54 32 0.0 1.0 0.00 0.00 0.00 67 1006.5
20260504172809 53 356 0.0 1.0 0.00 0.00 0.00 66 1006.5
20260504172305 53 341 0.0 1.0 0.00 0.00 0.00 69 1006.3
20260504171801 53 7 0.0 1.0 0.00 0.00 0.00 71 1006.1
20260504171258 52 26 0.0 0.0 0.00 0.00 0.00 75 1006.1
20260504170755 52 105 0.0 1.0 0.00 0.00 0.00 73 1006.0
20260504170252 53 133 0.0 1.0 0.00 0.00 0.00 74 1005.9
20260504160211 58 245 2.0 3.0 0.00 0.00 0.00 50 1005.5
20260504151139 57 32 1.0 5.0 0.00 0.00 0.00 46 1006.3
20260504150636 57 258 1.0 2.0 0.00 0.00 0.00 46 1006.6
20260504150133 57 261 1.0 6.0 0.00 0.00 0.00 45 1006.4
20260504141101 55 119 1.0 3.0 0.00 0.00 0.00 49 1007.3
20260504140558 55 202 2.0 5.0 0.00 0.00 0.00 47 1007.4
20260504130522 51 272 2.0 5.0 0.00 0.00 0.00 52 1008.1